Home > Weather > Renens > Past weeks

Flag for Switzerland Weather for the Past 2 Weeks in Renens, Vaud, Switzerland

Now
48 °F

Sprinkles. Partly sunny.


Feels Like: 43 °F
Forecast: 36 / 39 °F
Wind: 13 mph from Southwest

Location: Payerne

Current Time: Feb 9, 2016 at 11:16:34 AM

Latest Report: Feb 9, 2016 at 9:50 AM


Visibility: N/A

Pressure: 29.65 "Hg

Humidity: 82%

Dew point: 43 °F

Location of RenensLocation

Historic Weather in Renens — Graph

°F

Renens Temperature Yesterday

Maximum temperature yesterday: 52 °F (at 1:50 PM)
Minimum temperature yesterday: 37 °F (at 2:50 AM)
Average temperature yesterday: 45 °F

High & Low Weather Summary for the Past Weeks

 TemperatureHumidityPressure
High57 °F (Feb 1, 1:50 PM)100% (Jan 25, 9:50 AM)30.51 "Hg (Jan 25, 9:50 AM)
Low30 °F (Jan 25, 9:50 AM)58% (Feb 8, 1:50 PM)29.62 "Hg (Feb 7, 8:50 AM)
Average42 °F87%30.25 "Hg
* Reported Jan 25 9:50 AM — Feb 9 9:50 AM, Renens, Weather by CustomWeather, © 2016

Note: Actual official high and low records may vary slightly from our data, if they occured in-between our weather recording intervals... More about our weather records

Advertising

Renens Weather History for the Previous 24 Hours

 ConditionsComfort  
Time TempWeatherWind HumidityBarometerVisibility
9:50 AM
Tue, Feb 9
48 °FSprinkles. Partly sunny.13 mph82%29.65 "HgN/A
8:50 AM46 °FLight rain. Mostly cloudy.15 mph87%29.68 "HgN/A
7:50 AM46 °FLight rain. Broken clouds.15 mph87%29.68 "HgN/A
12:50 AM46 °FSprinkles. Passing clouds.12 mph87%29.89 "HgN/A
11:50 PM
Mon, Feb 8
46 °FRain showers. Mostly cloudy.22 mph82%29.92 "HgN/A
10:50 PM48 °FSprinkles. Partly cloudy.22 mph76%29.89 "HgN/A
9:50 PM48 °FPassing clouds.25 mph82%29.89 "HgN/A
8:50 PM48 °FPartly cloudy.23 mph82%29.89 "HgN/A
7:50 PM48 °FPassing clouds.25 mph82%29.86 "HgN/A
6:50 PM48 °FLight rain. Overcast.24 mph82%29.86 "HgN/A
5:50 PM48 °FSprinkles. Passing clouds.25 mph82%29.83 "HgN/A
4:50 PM48 °FLight rain. Mostly cloudy.23 mph82%29.80 "HgN/A
3:50 PM52 °FScattered clouds.24 mph67%29.77 "HgN/A
2:50 PM52 °FSprinkles. Partly sunny.29 mph62%29.77 "HgN/A
1:50 PM52 °FOvercast.25 mph58%29.77 "HgN/A
12:50 PM50 °FPartly sunny.30 mph62%29.77 "HgN/A
11:50 AM48 °FPartly sunny.18 mph66%29.80 "HgN/A
Weather by CustomWeather, © 2016

See weather overviewHow to use our weather pages